Weather History for KAVL - December, 2009

Change the Weather History Date:

Thursday, December 10, 2009

  Actual Average Record
Temperature  
Mean Temperature 33 °F 40 °F  
Max Temperature 41 °F 51 °F 74 °F (2007)
Min Temperature 25 °F 30 °F 3 °F (1917)
Degree Days  
Heating Degree Days 32 25  
Month to date heating degree days 252 235  
Since 1 July heating degree days 1058 1102  
Cooling Degree Days 0 0  
Month to date cooling degree days 0 0  
Year to date cooling degree days 774 863  
Moisture  
Dew Point 10 °F    
Average Humidity 42    
Maximum Humidity 59    
Minimum Humidity 25    
Precipitation  
Precipitation 0.00 in 0.13 in 1.97 in (2008)
Month to date precipitation 3.99 1.30  
Year to date precipitation 56.96 43.28  
Snow  
Snow 0.00 in 0.00 in 2.00 in (1876)
Month to date snowfall T 0.1  
Since 1 July snowfall T 0.2  
Snow Depth 0.00 in    
Sea Level Pressure  
Sea Level Pressure 29.95 in    
Wind  
Wind Speed 16 mph (NNW)    
Max Wind Speed 26 mph    
Max Gust Speed 31 mph    
Visibility 10 miles    
Events      
T = Trace of Precipitation, MM = Missing Value Source: NWS Daily Summary

Daily Weather History Graph

Daily Weather History Graph

Search for Another Location

Airport or City:

Trip Planner

Search our weather history database for the weather conditions in past years. The results will help you decide how hot, cold, wet, or windy it might be!

Date:

Astronomy

Dec. 10, 2009 Rise Set
Actual Time 7:28 AM EST 5:17 PM EST
Civil Twilight 7:00 AM EST 5:45 PM EST
Nautical Twilight 6:28 AM EST 6:17 PM EST
Astronomical Twilight 5:57 AM EST 6:48 PM EST
Moon 1:41 AM EST (12/10) 1:17 PM EST (12/10)
Length of Visible Light 10h 45m
Length of Day
9h 49m
Waning Crescent, 32% of the Moon is Illuminated
Dec 10
Waning Crescent
Dec 16
New
Dec 24
First Quarter
Dec 31
Full
Jan 7
Last Quarter

Hourly Weather History & Observations

Time (EST) Temp. Windchill Dew Point Humidity Pressure Visibility Wind Dir Wind Speed Gust Speed Precip Events Conditions
12:54 AM 39.0 °F 31.8 °F 25.0 °F 57% 29.66 in 10.0 mi North 11.5 mph 18.4 mph N/A   Clear
1:54 AM 37.9 °F 27.9 °F 24.1 °F 57% 29.68 in 10.0 mi NNW 19.6 mph 25.3 mph N/A   Clear
2:54 AM 36.0 °F 25.3 °F 21.0 °F 55% 29.72 in 10.0 mi North 19.6 mph 26.5 mph N/A   Clear
3:54 AM 35.1 °F 23.8 °F 16.0 °F 46% 29.73 in 10.0 mi North 20.7 mph 26.5 mph N/A   Clear
4:54 AM 32.0 °F 20.5 °F 16.0 °F 52% 29.76 in 10.0 mi NNW 18.4 mph 26.5 mph N/A   Clear
5:54 AM 30.0 °F 19.5 °F 15.1 °F 54% 29.81 in 10.0 mi NNW 13.8 mph 25.3 mph N/A   Clear
6:54 AM 28.9 °F 17.7 °F 16.0 °F 58% 29.84 in 10.0 mi NNW 15.0 mph 23.0 mph N/A   Clear
7:54 AM 28.9 °F 18.2 °F 16.0 °F 58% 29.88 in 10.0 mi NNW 13.8 mph 20.7 mph N/A   Clear
8:54 AM 30.0 °F 19.5 °F 15.1 °F 54% 29.92 in 10.0 mi North 13.8 mph 20.7 mph N/A   Clear
9:54 AM 32.0 °F 20.8 °F 12.9 °F 45% 29.94 in 10.0 mi NNW 17.3 mph 23.0 mph N/A   Clear
10:54 AM 34.0 °F 24.2 °F 12.9 °F 42% 29.95 in 10.0 mi NNW 15.0 mph 23.0 mph N/A   Clear
11:54 AM 35.1 °F 24.8 °F 10.9 °F 37% 29.95 in 10.0 mi North 17.3 mph 24.2 mph N/A   Clear
12:54 PM 37.0 °F 28.5 °F 10.0 °F 33% 29.95 in 10.0 mi North 13.8 mph 20.7 mph N/A   Clear
1:54 PM 39.0 °F 30.3 °F 7.0 °F 27% 29.95 in 10.0 mi NNW 16.1 mph 29.9 mph N/A   Clear
2:54 PM 37.9 °F 28.9 °F 7.0 °F 28% 29.98 in 10.0 mi North 16.1 mph 26.5 mph N/A   Clear
3:54 PM 37.0 °F 28.1 °F 5.0 °F 26% 30.02 in 10.0 mi North 15.0 mph 24.2 mph N/A   Clear
4:54 PM 34.0 °F 24.6 °F 5.0 °F 30% 30.05 in 10.0 mi North 13.8 mph 23.0 mph N/A   Clear
5:54 PM 30.0 °F 18.7 °F 3.9 °F 33% 30.09 in 10.0 mi NNW 16.1 mph 23.0 mph N/A   Clear
6:54 PM 28.9 °F 18.2 °F 3.0 °F 33% 30.11 in 10.0 mi North 13.8 mph 20.7 mph N/A   Clear
7:54 PM 28.0 °F 19.3 °F 3.9 °F 36% 30.13 in 10.0 mi NNW 9.2 mph 17.3 mph N/A   Clear
8:54 PM 28.0 °F 18.1 °F 1.9 °F 33% 30.14 in 10.0 mi NNW 11.5 mph - N/A   Clear
9:54 PM 27.0 °F 14.3 °F -0.0 °F 31% 30.16 in 10.0 mi NNW 17.3 mph 26.5 mph N/A   Clear
10:54 PM 26.1 °F 10.7 °F 1.0 °F 34% 30.18 in 10.0 mi NNW 25.3 mph 31.1 mph N/A   Clear
11:54 PM 25.0 °F 10.6 °F -0.0 °F 34% 30.19 in 10.0 mi NNW 20.7 mph 27.6 mph N/A   Clear